INTELSAT 904 (IS-904)

Last updated on Thu Nov 21 2024 00:02:40 GMT+0000 (Coordinated Universal Time)

1 27380U 02007A 24324.21727719 -.00000213 00000+0 00000+0 0 9995 2 27380 5.4730 76.0211 0003096 166.1144 225.3314 1.00271569 46000
UTC large
Height (km)
Speed (km/s)
/
Latitude / Longitude
Inclination (degrees)
Orbital Period (minutes)
Azimuth
Elevation
Range (km)
Doppler Factor

Next 0 passes for location: London (51.5072 / 0.1276)

Sorry there are no passes over London.